ジャコビニ-ツィナー彗星

21P/Giacobini-Zinner (2012)

English version
Home page
Updated on March 18, 2012

---------------------------------------------------------------------

・ プロフィール

・ 写真集

・ 軌道要素

Epoch 2012 Feb. 3.0 TT = JDT 2455960.5
T 2012 Feb. 11.73466 TT                                 MPC
q   1.0304891            (2000.0)            P               Q
n   0.14939636     Peri.  172.60355     +0.98510128     -0.09939158
a   3.5175697      Node   195.39700     +0.11783860     +0.98449875
e   0.7070451      Incl.   31.91064     +0.12525788     -0.14451133
P   6.60
From 1204 observations 1998 Jan. 20-2012 Feb. 29, mean residual 0".8.
     Nongravitational parameters A1 = +0.13, A2 = -0.0982.

・ 星図

・ 光度変化

        m1 = 8.7 + 5 logΔ + 18.5 log r

---------------------------------------------------------------------

軌道要素はM.P.E.C. 2012-F11に掲載されたものです。
星図は StellaNavigator Ver.2.0 for Windows (アストロアーツ編著 / アスキー出版局刊) で作成したものです。
光度グラフはComet for Windowsで作成したものです。

---------------------------------------------------------------------

Copyright(C) Seiichi Yoshida (comet@aerith.net). All rights reserved.